FENGYUN 1C DEB, 36678

Orbit data source: Space-Track

FENGYUN 1C DEB, 36678 is space debris in SSO originally from a launch on Mon, 10 May 1999 UTC launched from the Taiyaun Space Center, China (TSC). Fengyun 1C debris stems from the Chinese weather satellite Fengyun-1C, which was intentionally destroyed by a Chinese anti-satellite missile in 2007. This event dramatically increased the amount of space debris, with thousands of trackable fragments posing hazards to satellites and human spaceflight. The Fengyun 1C debris cloud has become a focal point in discussions about space sustainability and the need for international regulations to prevent the creation of new debris.

Loading next visibility...
Identifier
36678, 1999-025DYY
Orbit
SSO
Country
Flag of CNCN / PRC
Related business
Manufacturer
Unknown
Mission
Spacecraft
Bus & Motor
Unknown
Mass
Unknown
Launch date (UTC)
1999-05-10 (27 years ago)
Launch vehicle
Unknown
Launch site
Taiyaun Space Center, China (TSC)
Object type
Payload
Rocket body
Debris
Shape & HBR
Unknown shape, 0.1 m
Radar Cross Section
Medium (>0.1 m² and <1 m²)

Expand to show TLE details & history
Last TLE update: 1 day ago

TLE from 1 day ago
0 FENGYUN 1C DEB
1 36678U 99025DYY 26256.18238464  .00000391  00000-0  12626-3 0  9995
2 36678  98.3221 234.7867 0148911 247.8412 110.6915 14.38536225689348
Epoch: 2026-09-13T04:22Z
TLE epoch observation values (Epoch: 2026-09-13T04:22:38.032Z)
Latitude
-0.0001°
Longitude
176.94754°
Altitude
805.249 km
Speed
7.43 km/s
True Right ascension
15h 39m 08s
True Declination
0° 00' 00"
Sunlit
Object was in daylight at epoch
Visualization orbit readout
Latitude
Unknown
Longitude
Unknown
Altitude
Unknown
Speed
Unknown
Apparent Right ascension
Unknown
Apparent Declination
Unknown
Sunlit
N/A
Visualization observer readout
Local Sidereal Time
00:23:57
Azimuth
Unknown
Elevation
Unknown
Doppler factor
Unknown
Orbital elements
Apogee altitude
866.755 km
Perigee altitude
654.152 km
Semi-major axis
7,138.59 km
Eccentricity
0.01489
Inclination
98.3221°
RAAN
234.7867°
Arg. of periapsis
247.8412°
True anomaly
112.27719°
Mean anomaly
110.6915°
Eccentric anomaly
111.48541°
Mean motion
3.59852 °/min
Orbital period
100.04 mins
BSTAR
0.00012626
Loading maneuver chart data...
Computing Atmospheric mass density...

Documentation

Showing up to 5 results
|